Terminal Aerodrome Forecast
Issued by NWS

Home | Current Version | Previous Version | Text Only | Print | Product List | Glossary On
Versions: 1 2 3 4 5 6 7 8 9 10 11 12 13
796
FTPA31 PHFO 012320
TAFHJH
TAF
PHJH 012320Z 0200/0224 06015G25KT P6SM SCT025 SCT045
     FM020600 07011KT P6SM SCT025 SCT045
     FM022000 06013G23KT P6SM SCT025 SCT045
      AMD NOT SKED AFT 020400=

USA.gov is the U.S. government's official web portal to all federal, state and local government web resources and services.